Wind_Speed
51 50 50 49 48 46 43 39 38 38 37 35 31 28 26 27 29 29 23 18 17 17 16 16 15 14 13 13 13 13 13 14 14 14 15 15 15 15 16 16 16 16 17 17 17 17 17 18 18
53 52 52 52 51 49 44 40 40 40 40 34 30 29 28 30 31 26 23 19 19 19 18 17 15 15 14 14 14 14 14 14 15 15 15 14 15 15 15 16 16 17 17 17 17 17 18 18 19
53 53 54 55 54 51 45 41 41 42 41 36 34 33 33 36 31 25 24 22 21 21 19 18 17 16 15 15 15 14 14 14 14 14 14 15 15 16 16 17 17 17 17 17 17 17 18 18 19
53 54 55 57 55 51 46 42 43 44 43 39 37 35 37 35 28 26 27 25 23 22 21 20 18 17 16 15 15 15 15 15 15 15 15 16 16 16 17 17 17 17 17 18 18 18 19 19 19
54 55 56 57 55 51 48 46 46 46 44 41 39 39 39 35 32 30 29 27 26 24 22 21 20 19 18 17 16 16 16 16 16 16 16 17 17 17 18 18 18 18 17 18 18 18 18 18 19
53 54 56 57 55 52 50 48 47 47 45 43 41 41 41 37 35 33 31 30 28 25 24 23 22 21 19 18 18 18 17 17 18 18 18 18 18 18 18 18 18 17 17 17 17 17 17 17 18
53 54 54 53 52 52 50 49 48 47 46 44 43 42 44 39 37 35 33 32 29 27 27 25 24 23 22 20 19 19 19 19 19 19 19 18 18 18 18 18 17 17 17 17 17 17 16 17 17
53 53 53 53 51 50 49 49 49 48 46 44 44 44 46 41 39 37 35 33 31 29 29 28 26 25 24 23 21 20 20 20 20 20 19 19 18 18 18 18 17 17 16 16 16 16 16 16 17
54 55 55 52 50 48 46 48 50 49 47 46 46 47 48 42 40 38 36 34 33 31 30 29 28 27 26 24 23 22 21 21 21 20 20 19 19 18 18 18 17 17 16 16 16 16 16 16 17
54 55 51 47 47 47 46 47 49 49 47 46 47 48 47 42 40 38 37 36 34 33 32 31 30 29 27 26 25 24 23 22 22 21 20 20 19 19 18 18 18 17 16 16 16 16 16 16 17
52 50 47 48 50 51 50 50 49 48 47 47 47 46 45 41 40 39 38 37 36 35 33 32 31 30 29 27 27 26 25 24 23 22 21 21 20 20 19 19 18 17 17 17 17 17 17 17 17
51 48 49 50 52 53 52 51 48 48 47 47 48 47 46 43 42 41 40 38 37 36 35 33 32 31 30 29 28 27 26 25 24 23 22 22 21 21 20 20 19 19 19 19 19 19 19 19 19
50 50 51 52 54 53 52 51 49 47 48 49 49 49 46 44 43 42 41 40 38 37 36 35 33 32 31 30 29 28 28 27 26 25 24 23 23 22 22 22 21 21 21 21 21 21 21 21 21
48 51 53 54 54 52 51 50 49 48 49 49 49 47 46 44 44 43 42 41 39 38 36 35 34 33 32 31 31 30 29 28 27 26 25 25 24 24 24 24 23 23 23 23 23 23 23 24 24
48 50 53 53 53 52 51 50 48 48 49 49 49 47 46 46 45 44 43 41 40 38 37 36 35 34 33 33 32 31 31 30 29 28 27 27 26 26 26 26 26 26 26 26 26 26 26 27 27
48 50 51 51 51 52 52 49 47 48 50 49 49 48 47 46 45 44 43 42 41 39 38 37 36 35 35 34 33 33 32 31 30 29 29 29 29 29 28 28 29 29 29 29 29 29 29 30 30
47 47 47 48 49 50 51 49 47 48 49 50 50 49 49 47 46 45 44 43 41 40 38 38 37 36 36 36 35 34 33 32 31 31 31 31 31 31 31 31 31 32 32 32 32 32 33 33 33
43 42 43 45 47 48 49 48 47 48 48 49 49 49 49 48 47 46 45 44 42 41 39 39 38 38 37 37 35 34 34 34 33 33 33 33 34 34 34 34 34 35 35 35 35 36 36 37 37
40 41 41 41 44 46 47 47 46 47 47 47 48 49 49 48 47 46 45 44 42 41 40 39 39 39 38 37 36 35 35 36 35 35 35 35 36 37 37 37 37 37 37 38 38 39 39 40 40
40 39 39 40 42 43 44 46 46 47 47 46 47 49 50 48 47 46 45 44 42 41 41 40 39 39 38 38 37 37 37 37 37 37 37 38 38 39 39 39 39 40 40 41 41 41 42 43 43
38 37 37 38 39 40 42 44 45 45 45 45 46 47 49 49 48 47 46 44 43 42 41 40 40 40 39 38 38 38 38 38 38 38 39 40 41 41 41 41 42 42 43 43 43 44 45 46 46
36 36 36 36 37 38 40 42 42 43 44 44 44 45 46 48 48 47 46 44 43 42 41 41 40 40 40 39 39 39 39 39 40 41 41 41 42 42 43 43 44 44 45 45 46 47 47 48 49
34 35 34 34 34 35 37 39 40 42 42 42 42 43 44 45 46 46 45 44 43 42 41 41 40 40 40 40 40 40 41 41 41 42 42 43 43 44 44 45 45 46 47 47 48 48 49 50 51
32 32 31 32 33 34 34 36 37 39 39 40 41 42 42 43 43 44 44 44 43 42 41 41 41 41 41 41 41 41 41 42 42 43 43 44 44 45 46 47 47 47 48 49 49 50 51 52 53
31 31 31 32 34 33 32 34 35 37 37 38 39 41 41 41 42 43 42 42 42 41 41 41 41 41 41 41 42 42 42 43 43 44 44 45 45 46 46 47 48 48 49 49 50 51 52 54 55
31 31 30 30 30 29 31 33 35 35 35 35 36 38 39 40 41 41 41 41 41 41 41 41 41 41 41 42 42 42 42 43 43 44 44 45 46 46 46 46 47 48 48 49 51 52 54 55 56
30 30 28 27 26 26 28 31 33 33 33 34 34 35 37 38 39 40 41 41 41 40 40 40 41 41 41 41 41 41 42 42 43 44 44 44 45 45 45 45 46 46 47 49 51 53 54 55 57
27 27 27 26 25 24 25 27 29 30 31 32 33 34 35 36 37 39 40 40 40 40 40 40 40 40 40 41 41 41 41 42 42 42 42 43 43 44 44 44 45 46 47 49 51 52 53 54 56
26 26 26 25 25 24 24 26 26 28 29 31 32 33 34 35 36 37 37 38 39 39 39 39 39 39 39 40 40 40 40 40 40 40 41 41 41 42 42 42 43 45 46 48 49 50 52 53 53
24 24 24 25 25 24 24 25 23 24 26 28 30 31 33 34 34 35 36 37 37 38 37 37 37 37 37 37 37 37 37 38 38 38 39 39 39 39 39 41 42 43 45 46 47 48 49 49 49
Wind_Direction
223 223 222 222 221 220 218 216 219 220 221 219 220 222 223 224 223 226 229 227 231 236 240 243 246 248 252 257 260 263 265 269 273 276 279 282 286 290 293 296 298 300 302 303 304 304 304 304 303
224 224 223 222 222 221 217 218 222 223 224 221 220 222 223 229 230 231 234 231 234 238 241 245 247 250 253 257 261 264 266 270 273 276 279 283 287 290 294 297 300 301 303 304 305 305 304 304 303
225 224 224 223 222 221 218 219 224 226 226 221 221 221 223 226 228 230 235 234 235 238 242 245 247 250 252 256 261 264 267 270 273 276 281 284 288 292 295 297 300 302 303 304 305 305 305 304 304
225 225 225 224 222 220 219 218 222 226 227 222 222 223 226 230 230 231 235 236 236 239 242 245 247 249 251 254 259 261 265 269 273 277 281 284 288 292 295 297 300 302 303 304 305 305 305 304 304
226 226 227 226 223 220 219 220 223 225 226 225 223 226 228 228 228 229 232 235 236 239 243 245 247 248 249 252 255 259 264 269 274 277 281 284 288 291 294 297 299 302 304 305 306 307 307 306 305
227 227 227 226 224 221 219 221 224 227 227 226 225 227 230 227 229 230 232 234 236 238 242 244 246 247 247 249 252 257 262 268 273 277 281 285 288 291 294 296 298 301 303 305 307 308 308 308 308
228 228 228 227 226 223 221 222 225 228 228 227 226 228 231 227 228 229 231 233 235 237 240 242 244 246 247 249 252 256 262 268 273 278 282 285 288 291 293 295 297 300 302 304 306 307 308 308 309
227 227 228 227 225 223 223 224 225 227 227 227 227 227 230 227 227 229 230 232 234 236 239 242 244 246 248 251 254 257 263 268 274 278 281 284 287 289 292 294 296 298 300 302 304 305 306 308 309
225 226 227 227 226 224 223 225 225 225 225 225 226 226 229 227 227 228 230 232 233 235 238 241 244 247 249 253 257 260 264 269 274 277 280 282 284 287 289 291 293 294 297 299 302 303 305 305 307
225 227 228 228 228 225 223 225 224 223 223 224 225 226 228 227 228 229 230 231 232 234 237 240 244 247 251 255 259 263 267 270 273 276 278 280 283 284 286 288 289 291 293 295 297 299 301 303 304
225 227 226 226 226 224 223 224 224 222 221 222 224 226 227 226 226 227 229 230 232 234 237 240 243 247 252 256 260 264 268 270 273 275 277 279 281 282 283 284 286 288 289 291 293 295 297 299 301
225 224 224 225 226 225 224 224 224 222 221 221 221 222 223 222 223 225 227 229 231 234 236 239 243 248 252 257 261 265 268 270 273 275 277 278 279 280 281 281 283 284 286 287 290 292 294 295 296
224 223 224 225 226 225 225 225 224 222 221 221 221 221 222 222 223 224 226 228 230 233 236 240 244 248 253 257 261 265 267 270 273 275 277 278 279 279 280 280 281 283 283 285 287 289 291 292 293
223 223 224 225 226 225 226 225 224 223 222 222 222 222 222 222 223 225 226 228 230 233 236 240 245 249 254 258 261 264 267 270 273 274 275 277 278 279 280 280 280 281 282 283 285 287 289 290 290
221 223 224 225 226 226 226 226 224 224 224 223 223 222 222 223 223 225 227 229 231 234 237 241 246 250 254 257 260 264 267 269 271 273 275 276 277 278 279 280 280 281 282 283 284 285 286 287 288
222 223 224 225 227 227 227 225 225 225 224 224 223 223 223 223 224 226 228 230 233 236 239 243 247 250 254 257 260 263 266 268 270 272 274 276 276 277 278 279 280 280 282 283 283 284 284 285 286
219 223 225 226 227 228 228 226 225 226 225 224 224 224 224 225 226 227 230 232 234 237 240 243 247 250 253 257 259 262 265 268 270 272 273 275 276 277 279 279 280 281 281 282 282 282 282 283 284
220 223 225 227 228 229 229 227 226 226 226 225 225 225 226 227 228 229 231 234 236 239 242 244 247 250 253 256 259 262 265 267 269 271 273 275 276 277 279 279 280 281 281 281 281 281 281 282 283
219 221 223 226 229 229 229 227 227 227 227 226 226 226 227 228 230 231 232 235 237 240 242 245 248 250 253 256 258 261 264 266 269 271 274 276 277 277 278 279 280 280 280 280 280 281 281 282 282
216 219 222 225 229 230 229 228 227 228 227 227 227 227 228 229 231 232 234 236 239 241 243 245 247 249 252 255 258 260 263 266 269 272 274 275 276 277 278 278 279 280 280 280 281 281 281 281 282
214 217 221 225 229 231 231 230 229 229 229 228 228 229 230 230 232 233 235 237 239 241 244 246 248 250 252 254 257 260 263 266 269 272 273 274 276 277 278 278 279 279 280 280 281 281 281 281 281
211 215 220 225 229 232 232 232 230 229 230 229 229 231 232 232 233 234 236 239 240 242 244 246 248 250 252 255 257 260 263 266 269 270 272 274 276 277 278 278 279 280 280 280 281 281 281 281 281
210 215 220 226 230 233 232 232 231 230 230 230 231 232 233 234 235 236 238 240 241 242 244 246 247 250 253 255 258 261 264 266 268 270 272 274 275 276 277 278 279 279 280 280 281 281 280 281 281
210 215 220 225 230 233 233 233 232 232 230 230 232 233 234 235 236 237 239 240 242 243 245 246 248 250 253 256 259 261 264 266 268 270 272 273 274 276 277 278 279 279 280 280 280 280 281 281 281
207 212 218 224 230 234 234 234 232 232 230 230 232 233 234 236 236 237 239 241 242 244 246 248 250 252 254 257 259 261 264 266 268 270 271 273 274 276 276 277 279 279 280 280 281 281 282 282 282
207 213 218 225 232 235 234 234 233 232 232 231 232 234 235 236 237 238 240 242 243 245 247 249 252 254 255 257 259 262 264 265 267 269 271 273 274 275 276 277 278 279 280 280 281 282 283 283 283
208 211 217 224 230 234 235 235 235 233 233 232 233 234 235 236 238 239 240 242 244 246 248 250 252 254 255 257 259 261 263 266 268 270 271 273 275 276 277 278 279 279 280 281 282 283 284 283 283
209 210 213 221 227 233 238 238 236 232 234 233 233 234 236 237 238 239 241 242 244 247 249 250 252 253 255 257 259 261 264 266 268 270 271 273 275 276 277 278 280 280 282 283 283 284 285 284 283
209 210 216 222 227 231 235 238 234 231 232 233 233 233 235 237 238 239 240 242 244 246 248 249 251 253 255 257 259 262 264 266 268 270 272 274 275 277 278 279 281 282 283 284 285 286 286 286 285
211 214 219 223 226 228 232 238 236 232 232 232 232 233 234 235 237 238 239 241 243 245 247 249 251 253 255 257 260 262 264 267 269 272 274 276 277 278 280 281 283 285 286 286 287 288 289 288 288
Height
5786 5791 5796 5801 5807 5811 5818 5825 5828 5830 5834 5838 5844 5849 5852 5854 5854 5858 5861 5863 5866 5868 5869 5871 5872 5874 5875 5876 5877 5878 5879 5880 5880 5881 5882 5882 5882 5882 5882 5883 5883 5883 5883 5882 5882 5881 5881 5880 5880
5777 5782 5788 5793 5798 5805 5814 5820 5823 5826 5829 5836 5842 5845 5848 5849 5850 5855 5858 5861 5863 5865 5867 5869 5870 5872 5873 5874 5875 5876 5877 5878 5878 5879 5879 5880 5880 5880 5880 5880 5880 5880 5880 5880 5880 5879 5879 5878 5877
5768 5773 5779 5784 5791 5800 5810 5816 5819 5821 5824 5832 5837 5840 5842 5842 5848 5853 5856 5858 5861 5862 5864 5866 5868 5869 5871 5872 5873 5874 5874 5875 5876 5877 5877 5878 5878 5878 5878 5878 5878 5878 5878 5878 5877 5877 5876 5875 5875
5759 5765 5770 5777 5785 5795 5804 5809 5811 5814 5819 5826 5831 5835 5837 5841 5847 5851 5852 5855 5857 5860 5862 5863 5865 5867 5868 5869 5870 5871 5872 5873 5874 5874 5875 5875 5876 5876 5876 5876 5876 5876 5875 5875 5874 5874 5873 5873 5872
5750 5756 5762 5769 5779 5789 5797 5802 5804 5809 5814 5821 5826 5829 5831 5837 5842 5845 5848 5851 5854 5856 5858 5860 5862 5864 5865 5867 5868 5869 5870 5871 5871 5872 5873 5873 5873 5873 5873 5873 5873 5873 5873 5872 5872 5871 5870 5870 5869
5742 5748 5754 5762 5773 5783 5790 5795 5798 5803 5808 5814 5820 5823 5826 5833 5837 5841 5844 5846 5850 5853 5855 5857 5859 5860 5862 5864 5865 5866 5867 5868 5869 5869 5870 5870 5870 5871 5871 5870 5870 5870 5870 5869 5869 5868 5867 5867 5866
5735 5741 5748 5757 5766 5775 5783 5788 5791 5796 5802 5808 5814 5818 5819 5827 5832 5836 5839 5842 5846 5849 5851 5853 5855 5857 5859 5860 5862 5863 5864 5865 5866 5866 5867 5867 5867 5867 5868 5868 5867 5867 5867 5866 5866 5865 5865 5864 5863
5727 5734 5740 5748 5757 5767 5775 5779 5784 5789 5796 5802 5807 5811 5813 5821 5826 5831 5834 5838 5841 5844 5846 5849 5851 5853 5855 5857 5859 5860 5861 5862 5863 5863 5864 5864 5864 5864 5864 5864 5864 5864 5864 5863 5863 5862 5862 5861 5860
5717 5724 5732 5743 5752 5762 5767 5770 5775 5781 5788 5794 5799 5803 5807 5815 5821 5826 5830 5833 5837 5840 5842 5844 5847 5849 5851 5853 5855 5856 5858 5859 5859 5860 5860 5861 5861 5861 5861 5861 5861 5861 5861 5861 5860 5860 5859 5858 5857
5708 5717 5731 5741 5747 5752 5756 5760 5766 5773 5781 5787 5792 5797 5802 5811 5816 5821 5824 5828 5832 5835 5838 5840 5843 5845 5847 5849 5851 5852 5854 5855 5856 5856 5857 5857 5858 5858 5858 5858 5858 5858 5858 5857 5857 5856 5856 5855 5854
5703 5715 5727 5731 5734 5739 5745 5751 5759 5766 5774 5781 5786 5792 5798 5806 5810 5815 5819 5822 5826 5829 5833 5836 5838 5840 5843 5845 5846 5848 5849 5851 5851 5852 5853 5854 5854 5854 5854 5855 5855 5854 5854 5854 5854 5853 5852 5852 5851
5699 5709 5715 5720 5724 5730 5738 5745 5753 5760 5768 5773 5778 5784 5791 5798 5803 5808 5813 5817 5821 5824 5828 5831 5833 5836 5838 5840 5842 5843 5845 5846 5847 5848 5849 5850 5850 5850 5851 5851 5851 5851 5850 5850 5850 5849 5849 5848 5847
5691 5700 5705 5710 5715 5723 5731 5739 5746 5753 5759 5764 5771 5778 5785 5792 5797 5802 5807 5811 5815 5819 5823 5826 5828 5831 5833 5835 5837 5838 5840 5841 5842 5843 5844 5845 5846 5846 5846 5846 5846 5846 5846 5846 5845 5845 5844 5844 5843
5685 5690 5695 5700 5708 5717 5724 5732 5739 5748 5752 5758 5765 5773 5780 5786 5791 5796 5801 5805 5810 5814 5817 5820 5823 5825 5828 5830 5831 5833 5835 5836 5837 5838 5839 5840 5840 5841 5841 5841 5841 5841 5841 5841 5841 5840 5839 5839 5838
5675 5681 5687 5694 5702 5710 5717 5725 5734 5742 5745 5752 5759 5767 5773 5779 5785 5790 5795 5800 5804 5808 5812 5815 5818 5820 5822 5824 5826 5828 5829 5831 5832 5833 5834 5834 5835 5835 5836 5836 5836 5836 5836 5836 5835 5835 5834 5833 5832
5667 5673 5680 5689 5696 5703 5711 5720 5729 5733 5739 5746 5753 5760 5766 5773 5779 5784 5789 5794 5798 5802 5806 5809 5812 5814 5816 5818 5820 5822 5823 5825 5826 5827 5828 5828 5829 5829 5830 5830 5830 5830 5830 5830 5829 5828 5828 5827 5826
5659 5667 5676 5684 5690 5696 5704 5714 5721 5725 5732 5739 5746 5753 5760 5766 5772 5778 5783 5788 5792 5796 5800 5803 5806 5808 5810 5812 5814 5816 5817 5819 5820 5821 5822 5822 5822 5823 5823 5824 5824 5823 5823 5823 5822 5822 5821 5820 5819
5658 5666 5672 5678 5685 5691 5698 5707 5713 5718 5725 5733 5740 5746 5753 5759 5766 5771 5776 5781 5785 5790 5793 5796 5799 5802 5804 5806 5808 5810 5811 5813 5813 5814 5815 5815 5816 5816 5816 5817 5816 5816 5816 5816 5815 5814 5813 5813 5811
5653 5659 5666 5672 5677 5684 5691 5699 5705 5711 5718 5726 5733 5739 5746 5752 5758 5764 5769 5774 5779 5783 5786 5790 5793 5795 5797 5799 5801 5803 5804 5805 5807 5807 5808 5808 5809 5809 5809 5809 5809 5808 5808 5807 5807 5806 5805 5804 5803
5647 5654 5661 5666 5671 5678 5684 5691 5698 5704 5712 5719 5726 5732 5738 5745 5750 5756 5762 5767 5772 5776 5780 5783 5785 5788 5790 5792 5794 5796 5797 5798 5799 5800 5801 5801 5801 5801 5801 5801 5800 5800 5799 5799 5798 5797 5796 5795 5793
5643 5651 5657 5662 5667 5672 5678 5684 5692 5699 5705 5712 5719 5725 5731 5737 5743 5749 5755 5760 5765 5769 5773 5776 5778 5781 5783 5785 5787 5788 5790 5791 5792 5793 5793 5793 5792 5792 5792 5792 5791 5791 5790 5789 5788 5787 5786 5785 5783
5640 5646 5652 5657 5663 5667 5673 5679 5686 5692 5698 5705 5712 5718 5724 5730 5736 5742 5747 5752 5757 5761 5765 5768 5771 5773 5775 5777 5779 5781 5782 5784 5784 5784 5785 5784 5784 5783 5783 5783 5782 5781 5780 5780 5778 5777 5776 5774 5773
5636 5643 5648 5653 5658 5662 5667 5673 5680 5685 5692 5700 5706 5711 5717 5723 5728 5734 5739 5744 5749 5753 5757 5760 5763 5766 5767 5769 5771 5773 5774 5775 5776 5776 5776 5776 5775 5775 5774 5773 5772 5771 5770 5769 5768 5766 5765 5763 5761
5634 5640 5645 5649 5652 5658 5663 5668 5674 5680 5687 5693 5699 5705 5710 5716 5721 5726 5731 5736 5740 5745 5749 5752 5755 5757 5759 5761 5763 5764 5766 5766 5767 5767 5767 5766 5766 5765 5764 5763 5762 5761 5760 5758 5757 5755 5753 5751 5749
5630 5636 5641 5644 5648 5654 5659 5662 5669 5674 5681 5687 5692 5698 5703 5708 5713 5718 5723 5728 5732 5736 5740 5743 5746 5749 5751 5752 5754 5755 5757 5757 5758 5758 5757 5757 5757 5756 5755 5753 5752 5750 5749 5747 5745 5743 5741 5739 5737
5627 5633 5638 5642 5646 5650 5654 5657 5663 5669 5675 5680 5686 5691 5695 5700 5705 5710 5715 5719 5724 5727 5731 5734 5737 5739 5742 5743 5745 5746 5747 5748 5748 5748 5748 5747 5746 5746 5745 5743 5741 5740 5738 5736 5734 5731 5729 5726 5723
5624 5629 5635 5639 5643 5646 5649 5653 5658 5664 5669 5674 5679 5684 5688 5693 5698 5702 5706 5711 5715 5718 5722 5725 5728 5730 5732 5734 5736 5737 5738 5738 5739 5738 5738 5737 5736 5735 5734 5733 5731 5729 5727 5724 5722 5719 5716 5713 5709
5622 5627 5632 5636 5639 5642 5646 5649 5653 5659 5663 5667 5672 5677 5681 5686 5690 5694 5698 5702 5706 5710 5713 5716 5718 5721 5723 5725 5726 5727 5728 5728 5728 5728 5728 5727 5726 5725 5724 5722 5720 5718 5715 5712 5709 5706 5702 5699 5695
5620 5625 5628 5632 5636 5639 5642 5646 5648 5653 5657 5661 5665 5670 5674 5678 5682 5686 5690 5693 5697 5700 5703 5706 5709 5711 5713 5715 5716 5718 5718 5718 5719 5718 5718 5717 5716 5715 5713 5711 5709 5706 5703 5700 5696 5693 5689 5684 5680
5618 5622 5626 5630 5632 5636 5638 5644 5644 5648 5651 5655 5659 5663 5667 5671 5674 5678 5682 5685 5688 5692 5695 5698 5700 5702 5704 5706 5707 5708 5709 5709 5709 5709 5708 5707 5706 5704 5702 5700 5698 5695 5692 5688 5684 5680 5675 5671 5667